Simultaneous Nadir Overpasses (SNOs) Predictions

Prediction of SNOs between METOP-B and TERRA Satellite Orbit:

Table of predicted SNOs for the next 14.0 days since TLE Epoch: 3/15/2019
Index Date (METOP-B) Time (METOP-B) Lat,Lon (METOP-B) SZA (METOP-B ) Date (TERRA) Time (TERRA) Lat,Lon (TERRA) SZA (TERRA ) Distance(km) Time Diff (sec)
1 03/18/2019 16:09:08 81.30, -15.02 84.73 03/18/2019 16:09:36 81.30, -15.06 84.74 0.87 28
2 03/18/2019 16:59:48 -81.30, 152.53 95.26 03/18/2019 16:59:03 -81.30, 152.58 95.28 0.96 45
3 03/21/2019 11:43:32 81.30, 51.34 83.64 03/21/2019 11:43:52 81.30, 51.41 83.66 1.36 20
4 03/21/2019 12:34:12 -81.30,-141.09 96.35 03/21/2019 12:33:19 -81.31,-140.92 96.35 3.01 53
5 03/24/2019 07:17:55 81.30, 117.70 82.55 03/24/2019 07:18:08 81.29, 117.52 82.53 3.15 13
6 03/24/2019 08:08:35 -81.30, -74.72 97.44 03/24/2019 08:07:35 -81.29, -74.77 97.47 1.28 60
7 03/27/2019 02:52:19 81.29,-175.95 81.47 03/27/2019 02:52:24 81.29,-175.95 81.47 0.36 5
8 03/27/2019 03:42:59 -81.30, -8.36 98.52 03/27/2019 03:41:51 -81.30, -8.23 98.53 2.29 68




NCC Satellite Simultaneous Nadir Overpasses (SNOs) Prediction Service
